EW1613 Weather Reports


Display with metric or nautical units.
time (UTC)temp
F
wind
direction
speed
MPH
gust
MPH
rain 1hr
in
rain 24hr
in
rain mn
in
humidity
%
barometer
mb
20260906163056 89 88 1.0 4.0 0.00 0.00 0.00 46 1021.4
20260906162557 88 114 1.0 4.0 0.00 0.00 0.00 47 1021.3
20260906162114 89 101 1.0 4.0 0.00 0.00 0.00 46 1021.3
20260906161551 89 107 1.0 6.0 0.00 0.00 0.00 46 1021.4
20260906161101 89 88 3.0 6.0 0.00 0.00 0.00 46 1021.3
20260906160602 89 99 2.0 4.0 0.00 0.00 0.00 46 1021.3
20260906155556 89 87 2.0 6.0 0.00 0.00 0.00 46 1021.3
20260906155117 89 75 2.0 5.0 0.00 0.00 0.00 47 1021.4
20260906154557 89 101 3.0 7.0 0.00 0.00 0.00 46 1021.4
20260906154118 89 82 3.0 7.0 0.00 0.00 0.00 47 1021.4
20260906153632 89 101 3.0 6.0 0.00 0.00 0.00 46 1021.3
20260906153111 90 68 2.0 6.0 0.00 0.00 0.00 46 1021.4
20260906152631 90 103 3.0 7.0 0.00 0.00 0.00 46 1021.3
20260906152131 90 113 2.0 8.0 0.00 0.00 0.00 46 1021.4
20260906151604 90 123 4.0 8.0 0.00 0.00 0.00 46 1021.4
20260906151104 91 67 2.0 4.0 0.00 0.00 0.00 45 1021.4
20260906150559 91 103 1.0 5.0 0.00 0.00 0.00 46 1021.4
20260906150053 90 196 2.0 6.0 0.00 0.00 0.00 46 1021.4
20260906145553 91 77 2.0 9.0 0.00 0.00 0.00 45 1021.4
20260906145114 91 121 4.0 9.0 0.00 0.00 0.00 46 1021.4
20260906144635 91 200 1.0 6.0 0.00 0.00 0.00 46 1021.5
20260906144107 91 187 3.0 7.0 0.00 0.00 0.00 46 1021.5
20260906143601 92 94 3.0 7.0 0.00 0.00 0.00 46 1021.5
20260906143102 91 161 1.0 8.0 0.00 0.00 0.00 45 1021.5
20260906142623 91 144 3.0 8.0 0.00 0.00 0.00 45 1021.5
20260906142056 91 136 3.0 5.0 0.00 0.00 0.00 46 1021.5
20260906141556 91 186 2.0 6.0 0.00 0.00 0.00 47 1021.6
20260906141110 91 89 3.0 8.0 0.00 0.00 0.00 46 1021.6
20260906140611 91 98 3.0 8.0 0.00 0.00 0.00 45 1021.5
20260906140105 91 130 2.0 6.0 0.00 0.00 0.00 46 1021.6
20260906135621 91 103 2.0 7.0 0.00 0.00 0.00 45 1021.5
20260906135054 91 94 3.0 8.0 0.00 0.00 0.00 45 1021.6
20260906134555 91 123 3.0 8.0 0.00 0.00 0.00 45 1021.6
20260906134116 91 103 3.0 6.0 0.00 0.00 0.00 45 1021.6
20260906133610 90 138 3.0 6.0 0.00 0.00 0.00 45 1021.7
20260906133103 91 106 2.0 5.0 0.00 0.00 0.00 44 1021.7
20260906132624 91 94 4.0 7.0 0.00 0.00 0.00 44 1021.7
20260906132104 90 154 3.0 7.0 0.00 0.00 0.00 45 1021.7
20260906131604 90 121 4.0 7.0 0.00 0.00 0.00 46 1021.8
20260906131057 90 140 2.0 9.0 0.00 0.00 0.00 46 1021.7
20260906130619 90 65 3.0 9.0 0.00 0.00 0.00 46 1021.8
20260906130051 90 78 2.0 6.0 0.00 0.00 0.00 45 1021.9
20260906125630 90 30 2.0 8.0 0.00 0.00 0.00 45 1021.9
20260906125107 90 102 4.0 7.0 0.00 0.00 0.00 44 1021.9
20260906124600 90 98 3.0 6.0 0.00 0.00 0.00 45 1022.0
20260906124101 89 38 1.0 6.0 0.00 0.00 0.00 45 1021.9
20260906123623 89 65 2.0 6.0 0.00 0.00 0.00 45 1021.9
20260906123055 89 94 3.0 7.0 0.00 0.00 0.00 45 1022.0
20260906122555 89 93 4.0 10.0 0.00 0.00 0.00 45 1021.9
20260906122116 89 233 4.0 10.0 0.00 0.00 0.00 46 1021.9
20260906121630 90 93 1.0 10.0 0.00 0.00 0.00 45 1022.0
20260906121110 90 88 5.0 10.0 0.00 0.00 0.00 45 1022.0
20260906120602 90 151 3.0 9.0 0.00 0.00 0.00 45 1022.0
20260906115556 90 68 3.0 8.0 0.00 0.00 0.00 45 1022.0
20260906115057 90 158 3.0 8.0 0.00 0.00 0.00 45 1022.0
20260906114557 89 133 2.0 7.0 0.00 0.00 0.00 45 1022.1
20260906114051 89 51 1.0 8.0 0.00 0.00 0.00 45 1022.0
20260906113552 90 64 3.0 8.0 0.00 0.00 0.00 44 1022.1
20260906113129 89 97 3.0 7.0 0.00 0.00 0.00 45 1022.0
20260906112629 89 127 3.0 7.0 0.00 0.00 0.00 46 1022.1
20260906112100 88 92 1.0 9.0 0.00 0.00 0.00 47 1022.2
20260906111554 88 61 2.0 9.0 0.00 0.00 0.00 47 1022.2
20260906111055 88 40 3.0 8.0 0.00 0.00 0.00 46 1022.2
20260906110616 88 107 3.0 8.0 0.00 0.00 0.00 47 1022.1
20260906110114 88 130 3.0 8.0 0.00 0.00 0.00 47 1022.2
20260906105608 87 94 2.0 6.0 0.00 0.00 0.00 48 1022.2
20260906105110 87 143 3.0 7.0 0.00 0.00 0.00 48 1022.2
20260906104603 87 51 4.0 7.0 0.00 0.00 0.00 47 1022.2
20260906104103 87 15 1.0 8.0 0.00 0.00 0.00 47 1022.3
20260906103603 87 96 4.0 8.0 0.00 0.00 0.00 48 1022.3
20260906103057 86 121 2.0 9.0 0.00 0.00 0.00 49 1022.4
20260906102619 86 73 2.0 8.0 0.00 0.00 0.00 50 1022.4
20260906102117 86 61 4.0 8.0 0.00 0.00 0.00 49 1022.4
20260906101552 86 78 2.0 6.0 0.00 0.00 0.00 49 1022.4
20260906101113 86 355 3.0 10.0 0.00 0.00 0.00 49 1022.5
20260906100613 85 360 3.0 10.0 0.00 0.00 0.00 51 1022.4
20260906100105 85 62 3.0 11.0 0.00 0.00 0.00 50 1022.5
20260906095627 85 37 6.0 11.0 0.00 0.00 0.00 50 1022.5
20260906095059 85 142 2.0 12.0 0.00 0.00 0.00 51 1022.5
20260906094620 85 46 4.0 10.0 0.00 0.00 0.00 51 1022.6
20260906094116 85 60 4.0 9.0 0.00 0.00 0.00 51 1022.6
20260906093615 85 82 5.0 9.0 0.00 0.00 0.00 51 1022.6
20260906093109 85 88 3.0 9.0 0.00 0.00 0.00 51 1022.7
20260906092630 84 98 4.0 9.0 0.00 0.00 0.00 52 1022.7
20260906092103 84 49 4.0 10.0 0.00 0.00 0.00 53 1022.8
20260906091604 84 63 5.0 10.0 0.00 0.00 0.00 51 1022.8
20260906091057 84 85 3.0 10.0 0.00 0.00 0.00 53 1022.8
20260906090619 84 76 2.0 8.0 0.00 0.00 0.00 53 1022.8
20260906090051 83 85 5.0 9.0 0.00 0.00 0.00 53 1022.8
20260906085552 83 84 4.0 9.0 0.00 0.00 0.00 53 1022.9
20260906085113 83 33 4.0 10.0 0.00 0.00 0.00 53 1022.9
20260906084606 83 74 6.0 10.0 0.00 0.00 0.00 52 1022.8
20260906084100 83 69 5.0 10.0 0.00 0.00 0.00 53 1022.8
20260906083601 83 80 3.0 10.0 0.00 0.00 0.00 53 1022.8
20260906083055 83 66 5.0 10.0 0.00 0.00 0.00 53 1022.9
20260906082616 83 77 5.0 10.0 0.00 0.00 0.00 54 1022.8
20260906082056 83 355 4.0 11.0 0.00 0.00 0.00 54 1022.8
20260906081637 83 43 5.0 11.0 0.00 0.00 0.00 54 1022.8
20260906081109 82 36 4.0 10.0 0.00 0.00 0.00 55 1022.7
20260906080610 82 91 3.0 12.0 0.00 0.00 0.00 57 1022.8
20260906080103 82 79 5.0 12.0 0.00 0.00 0.00 57 1022.8
20260906075604 81 76 5.0 12.0 0.00 0.00 0.00 57 1022.8
20260906075057 81 36 6.0 10.0 0.00 0.00 0.00 58 1022.7
20260906074558 81 69 4.0 10.0 0.00 0.00 0.00 58 1022.7
20260906074120 81 74 5.0 9.0 0.00 0.00 0.00 59 1022.7
20260906073609 80 72 4.0 10.0 0.00 0.00 0.00 60 1022.6
20260906073108 80 47 5.0 10.0 0.00 0.00 0.00 60 1022.5
20260906072602 80 61 5.0 11.0 0.00 0.00 0.00 60 1022.6
20260906072103 80 57 4.0 11.0 0.00 0.00 0.00 61 1022.6
20260906071557 79 46 4.0 10.0 0.00 0.00 0.00 62 1022.5
20260906071057 79 74 4.0 10.0 0.00 0.00 0.00 63 1022.5
20260906070556 79 355 3.0 6.0 0.00 0.00 0.00 64 1022.4
20260906070106 78 49 2.0 8.0 0.00 0.00 0.00 66 1022.4
20260906065626 78 34 4.0 8.0 0.00 0.00 0.00 66 1022.4
20260906065105 78 39 3.0 9.0 0.00 0.00 0.00 66 1022.4
20260906064607 78 33 4.0 9.0 0.00 0.00 0.00 66 1022.3
20260906064100 77 18 4.0 9.0 0.00 0.00 0.00 67 1022.2
20260906063554 77 34 4.0 8.0 0.00 0.00 0.00 68 1022.2
20260906063055 77 46 2.0 5.0 0.00 0.00 0.00 70 1022.2
20260906062552 76 34 2.0 9.0 0.00 0.00 0.00 70 1022.1
20260906062053 76 19 2.0 5.0 0.00 0.00 0.00 72 1022.0
20260906061615 76 40 2.0 6.0 0.00 0.00 0.00 73 1022.0
20260906061108 75 28 2.0 6.0 0.00 0.00 0.00 73 1022.0
20260906060629 75 5 2.0 5.0 0.00 0.00 0.00 74 1021.9
20260906060108 75 14 1.0 4.0 0.00 0.00 0.00 75 1021.9
20260906055602 74 13 2.0 4.0 0.00 0.00 0.00 75 1021.9
20260906055102 74 17 1.0 3.0 0.00 0.00 0.00 77 1021.8
20260906054555 73 16 0.0 4.0 0.00 0.00 0.00 78 1021.7
20260906054116 73 17 0.0 5.0 0.00 0.00 0.00 78 1021.5
20260906053610 72 346 1.0 5.0 0.00 0.00 0.00 79 1021.5
20260906053110 72 5 1.0 3.0 0.00 0.00 0.00 80 1021.5
20260906052604 72 5 0.0 2.0 0.00 0.00 0.00 81 1021.4
20260906052105 72 5 1.0 2.0 0.00 0.00 0.00 81 1021.5
20260906051559 71 5 0.0 2.0 0.00 0.00 0.00 81 1021.4
20260906051053 71 5 0.0 2.0 0.00 0.00 0.00 81 1021.4
20260906050554 71 5 0.0 3.0 0.00 0.00 0.00 81 1021.3
20260906050112 71 5 1.0 3.0 0.00 0.00 0.00 81 1021.3
20260906045604 72 5 0.0 2.0 0.00 0.00 0.00 81 1021.2
20260906045105 72 5 0.0 2.0 0.00 0.00 0.00 80 1021.1
20260906044626 72 5 0.0 2.0 0.00 0.00 0.00 80 1021.1
20260906044059 72 5 1.0 2.0 0.00 0.00 0.00 80 1021.1
20260906043558 72 5 0.0 2.0 0.00 0.00 0.00 80 1021.0
20260906043052 72 5 1.0 3.0 0.00 0.00 0.00 80 1020.9
20260906042613 72 5 1.0 4.0 0.00 0.00 0.00 80 1020.8
20260906042107 72 5 1.0 4.0 0.00 0.00 0.00 80 1020.8
20260906041607 72 355 1.0 3.0 0.00 0.00 0.00 80 1020.7
20260906041101 72 355 1.0 3.0 0.00 0.00 0.00 80 1020.7
20260906040602 72 355 0.0 3.0 0.00 0.00 0.00 79 1020.6
20260906040116 72 348 1.0 3.0 0.00 0.00 0.00 79 1020.6
20260906035616 72 350 0.0 3.0 0.00 0.00 0.00 78 1020.6
20260906035055 72 348 1.0 4.0 0.00 0.00 0.00 78 1020.6
20260906034616 72 347 1.0 4.0 0.00 0.00 0.00 78 1020.5
20260906034108 72 13 1.0 4.0 0.00 0.00 0.00 79 1020.4
20260906033609 72 13 0.0 4.0 0.00 0.00 0.00 79 1020.4
20260906033103 72 13 1.0 3.0 0.00 0.00 0.00 79 1020.4
20260906032624 72 29 0.0 4.0 0.00 0.00 0.00 79 1020.3
20260906032056 72 29 2.0 4.0 0.00 0.00 0.00 80 1020.4
20260906031557 72 5 1.0 3.0 0.00 0.00 0.00 81 1020.3
20260906031051 73 5 1.0 3.0 0.00 0.00 0.00 81 1020.4
20260906030551 73 5 1.0 3.0 0.00 0.00 0.00 81 1020.3
20260906030106 73 5 1.0 3.0 0.00 0.00 0.00 82 1020.3
20260906025606 73 351 0.0 3.0 0.00 0.00 0.00 82 1020.4
20260906025100 73 345 1.0 3.0 0.00 0.00 0.00 82 1020.4
20260906024601 73 345 1.0 3.0 0.00 0.00 0.00 83 1020.5
20260906024056 73 333 1.0 3.0 0.00 0.00 0.00 83 1020.5
20260906023617 73 335 1.0 4.0 0.00 0.00 0.00 83 1020.5
20260906023116 73 349 2.0 4.0 0.00 0.00 0.00 83 1020.5
20260906022610 73 328 1.0 3.0 0.00 0.00 0.00 84 1020.4
20260906022111 73 327 1.0 2.0 0.00 0.00 0.00 84 1020.4
20260906021625 73 327 1.0 3.0 0.00 0.00 0.00 84 1020.3
20260906021101 73 327 2.0 3.0 0.00 0.00 0.00 84 1020.2
20260906020555 73 326 0.0 2.0 0.00 0.00 0.00 84 1020.2
20260906020056 73 326 0.0 3.0 0.00 0.00 0.00 85 1020.2
20260906015606 73 326 1.0 3.0 0.00 0.00 0.00 85 1020.1
20260906015051 73 325 1.0 2.0 0.00 0.00 0.00 86 1020.1
20260906014600 73 325 0.0 2.0 0.00 0.00 0.00 86 1020.1
20260906014101 73 325 0.0 2.0 0.00 0.00 0.00 86 1020.2
20260906013555 73 323 1.0 3.0 0.00 0.00 0.00 85 1020.1
20260906013057 74 322 1.0 4.0 0.00 0.00 0.00 85 1020.1
20260906012619 74 325 2.0 4.0 0.00 0.00 0.00 85 1020.1
20260906012051 74 343 2.0 3.0 0.00 0.00 0.00 85 1020.1
20260906011612 74 347 1.0 3.0 0.00 0.00 0.00 85 1020.0
20260906011133 75 13 2.0 3.0 0.00 0.00 0.00 84 1020.0
20260906010625 75 32 0.0 1.0 0.00 0.00 0.00 85 1020.0
20260906010105 75 32 0.0 0.0 0.00 0.00 0.00 84 1019.9
20260906005559 75 32 0.0 0.0 0.00 0.00 0.00 84 1019.9
20260906005100 75 32 0.0 0.0 0.00 0.00 0.00 84 1019.9
20260906004623 75 32 0.0 0.0 0.00 0.00 0.00 84 1020.0
20260906004115 75 32 0.0 0.0 0.00 0.00 0.00 84 1019.9
20260906003554 75 32 0.0 0.0 0.00 0.00 0.00 84 1019.9
20260906003114 75 32 0.0 1.0 0.00 0.00 0.00 84 1019.9
20260906002608 75 32 0.0 3.0 0.00 0.00 0.00 84 1019.9
20260906002101 76 32 0.0 3.0 0.00 0.00 0.00 84 1019.9
20260906001601 76 30 1.0 2.0 0.00 0.00 0.00 84 1020.0
20260906001100 76 30 0.0 2.0 0.00 0.00 0.00 84 1020.1
20260906000600 76 30 1.0 2.0 0.00 0.00 0.00 84 1020.1
20260906000059 76 30 0.0 2.0 0.00 0.00 0.00 84 1019.9
20260905235613 76 30 0.0 2.0 0.00 0.00 0.00 84 1019.9
20260905235052 76 30 1.0 3.0 0.00 0.00 0.00 84 1019.9
20260905234609 76 30 0.0 3.0 0.00 0.00 0.00 84 1019.9
20260905234103 76 31 0.0 2.0 0.00 0.00 0.00 84 1019.8
20260905233623 76 31 0.0 3.0 0.00 0.00 0.00 84 1019.8
20260905233118 76 31 1.0 3.0 0.00 0.00 0.00 84 1019.8
20260905232550 76 32 0.0 2.0 0.00 0.00 0.00 85 1019.7
20260905232051 76 32 0.0 2.0 0.00 0.00 0.00 85 1019.7
20260905231605 76 32 0.0 2.0 0.00 0.00 0.00 85 1019.7
20260905231126 76 32 1.0 4.0 0.00 0.00 0.00 85 1019.7
20260905230606 76 29 1.0 4.0 0.00 0.00 0.00 86 1019.6
20260905230059 76 25 1.0 3.0 0.00 0.00 0.00 87 1019.6
20260905225559 76 24 1.0 3.0 0.00 0.00 0.00 87 1019.6
20260905225053 76 24 1.0 3.0 0.00 0.00 0.00 87 1019.5
20260905224553 76 23 0.0 2.0 0.00 0.00 0.00 87 1019.4
20260905224115 76 23 0.0 2.0 0.00 0.00 0.00 87 1019.4
20260905223550 77 23 1.0 3.0 0.00 0.00 0.00 87 1019.4
20260905223104 77 23 1.0 3.0 0.00 0.00 0.00 87 1019.4
20260905222605 77 33 1.0 3.0 0.00 0.00 0.00 87 1019.4
20260905222126 77 31 1.0 3.0 0.00 0.00 0.00 87 1019.4
20260905221558 77 25 0.0 3.0 0.00 0.00 0.00 87 1019.4
20260905221059 78 25 0.0 3.0 0.00 0.00 0.00 86 1019.3
20260905220552 78 25 1.0 2.0 0.00 0.00 0.00 86 1019.2
20260905220112 78 98 0.0 0.0 0.00 0.00 0.00 85 1019.1
20260905215605 78 98 0.0 0.0 0.00 0.00 0.00 85 1019.1
20260905215125 79 98 0.0 0.0 0.00 0.00 0.00 84 1019.1
20260905214608 79 98 0.0 0.0 0.00 0.00 0.00 84 1019.1
20260905214100 79 98 0.0 0.0 0.00 0.00 0.00 84 1019.0
20260905213621 79 98 0.0 0.0 0.00 0.00 0.00 84 1019.0
20260905213053 79 98 0.0 0.0 0.00 0.00 0.00 83 1018.9
20260905212554 80 98 0.0 0.0 0.00 0.00 0.00 83 1018.8
20260905212108 80 98 0.0 0.0 0.00 0.00 0.00 82 1018.7
20260905211609 80 98 0.0 2.0 0.00 0.00 0.00 82 1018.6
20260905211103 80 98 0.0 3.0 0.00 0.00 0.00 82 1018.5
20260905210604 80 98 0.0 3.0 0.00 0.00 0.00 82 1018.5
20260905210057 80 98 0.0 3.0 0.00 0.00 0.00 81 1018.5
20260905205558 80 96 1.0 3.0 0.00 0.00 0.00 81 1018.5
20260905205052 81 97 2.0 3.0 0.00 0.00 0.00 81 1018.6
20260905204613 81 96 0.0 4.0 0.00 0.00 0.00 81 1018.5
20260905204107 81 96 2.0 4.0 0.00 0.00 0.00 80 1018.5
20260905203608 81 98 1.0 6.0 0.00 0.00 0.00 80 1018.4
20260905203102 81 109 2.0 6.0 0.00 0.00 0.00 80 1018.4
20260905202603 81 119 1.0 5.0 0.00 0.00 0.00 80 1018.4
20260905202113 81 110 2.0 6.0 0.00 0.00 0.00 79 1018.4
20260905201552 81 99 2.0 5.0 0.00 0.00 0.00 79 1018.4
20260905201113 81 138 1.0 5.0 0.00 0.00 0.00 79 1018.4
20260905200607 81 128 2.0 5.0 0.00 0.00 0.00 78 1018.3
20260905200101 82 145 2.0 5.0 0.00 0.00 0.00 78 1018.3
20260905195602 82 142 3.0 5.0 0.00 0.00 0.00 78 1018.2
20260905195055 82 173 2.0 5.0 0.00 0.00 0.00 77 1018.2
20260905194557 82 144 2.0 6.0 0.00 0.00 0.00 77 1018.1
20260905194051 82 145 3.0 6.0 0.00 0.00 0.00 77 1018.1
20260905193552 83 156 2.0 5.0 0.00 0.00 0.00 76 1017.9
20260905193106 83 163 2.0 6.0 0.00 0.00 0.00 76 1017.9
20260905192627 83 151 2.0 6.0 0.00 0.00 0.00 75 1017.7
20260905192127 83 164 3.0 6.0 0.00 0.00 0.00 74 1017.6
20260905191607 83 150 2.0 5.0 0.00 0.00 0.00 74 1017.5
20260905191100 84 163 1.0 4.0 0.00 0.00 0.00 73 1017.5
20260905190554 84 159 1.0 3.0 0.00 0.00 0.00 72 1017.5
20260905190055 84 151 1.0 3.0 0.00 0.00 0.00 72 1017.4
20260905185616 85 101 1.0 3.0 0.00 0.00 0.00 72 1017.4
20260905185050 85 101 0.0 3.0 0.00 0.00 0.00 71 1017.2
20260905184611 85 101 1.0 3.0 0.00 0.00 0.00 71 1017.2
20260905184106 85 101 1.0 3.0 0.00 0.00 0.00 71 1017.1
20260905183600 85 98 1.0 3.0 0.00 0.00 0.00 70 1017.0
20260905183100 85 96 1.0 3.0 0.00 0.00 0.00 70 1016.9
20260905182554 86 94 1.0 4.0 0.00 0.00 0.00 69 1016.8
20260905182054 86 99 1.0 4.0 0.00 0.00 0.00 69 1016.8
20260905181615 86 111 2.0 4.0 0.00 0.00 0.00 68 1016.7
20260905181129 87 103 2.0 4.0 0.00 0.00 0.00 68 1016.6
20260905180606 87 103 2.0 6.0 0.00 0.00 0.00 67 1016.6
20260905180127 87 102 2.0 6.0 0.00 0.00 0.00 65 1016.5
20260905175606 88 112 1.0 3.0 0.00 0.00 0.00 65 1016.5
20260905175100 88 111 1.0 4.0 0.00 0.00 0.00 63 1016.4
20260905174600 89 111 1.0 4.0 0.00 0.00 0.00 61 1016.3
20260905174122 89 98 1.0 3.0 0.00 0.00 0.00 60 1016.3
20260905173554 90 94 1.0 9.0 0.00 0.00 0.00 57 1016.2
20260905173115 90 92 4.0 9.0 0.00 0.00 0.00 54 1016.1
20260905172609 91 158 0.0 2.0 0.00 0.00 0.00 49 1016.0
20260905172105 91 158 0.0 2.0 0.00 0.00 0.00 48 1015.9
20260905171626 91 159 0.0 2.0 0.00 0.00 0.00 48 1015.9
20260905171059 91 159 0.0 2.0 0.00 0.00 0.00 48 1015.9
20260905170600 92 159 0.0 2.0 0.00 0.00 0.00 48 1015.9
20260905170124 92 159 1.0 2.0 0.00 0.00 0.00 47 1015.9
20260905165556 92 157 0.0 3.0 0.00 0.00 0.00 47 1015.9
20260905165117 92 158 2.0 4.0 0.00 0.00 0.00 46 1015.8
20260905164550 92 157 2.0 4.0 0.00 0.00 0.00 46 1015.7
20260905164111 93 145 2.0 4.0 0.00 0.00 0.00 46 1015.7
20260905163604 93 151 1.0 5.0 0.00 0.00 0.00 46 1015.6